[[{"header":{"parameterUnit":"m.s-1","parameterCategory":1,"la1":30.2991,"la2":30.254,"lo1":-89.0895,"lo2":-89.0444,"dy":0.0017,"dx":0.0017,"nx":28,"ny":28,"refTime":"2025-07-10T09:00:00:Z","depth":0,"parameterNumber":2,"parameterNumberName":"U-component_of_WINDS"},"data":[0,0,0,0,0,0,0,0,0,0,0,0,0,0,0,0,0,0,0,0,0,0,0,0,0,0,0,0,0,0,0,0,0,0,0,0,0,0,0,0,0,0,0,0,0,0,0,0,0,0,0,0,0,0,0,0,0,0,3.29,3.29,0,3.2937,3.2938,3.2938,3.2841,3.2838,3.2835,3.2832,3.2878,3.2882,3.2886,0,0,0,0,0,0,0,0,0,0,0,0,0,3.2752,3.2755,3.29,3.29,3.2901,3.2937,3.2938,3.2938,3.2842,3.2838,3.2835,3.2831,3.2876,3.2881,3.2886,0,0,0,0,0,0,0,0,0,0,0,0,0,3.2806,3.2756,3.29,3.2857,3.2853,3.2937,3.2938,3.2939,3.2843,3.2838,3.2834,3.2829,3.2875,3.2881,3.2887,3.3016,0,0,3.2905,3.2908,0,0,0,0,0,0,0,0,3.2803,3.2811,3.2863,3.286,3.2856,3.288,3.2902,3.2965,3.2844,3.2847,3.2832,3.2827,3.2883,3.2888,3.2905,3.3018,3.302,3.2906,3.2909,3.2912,3.2914,0,0,0,0,0,0,0,3.2799,3.2809,3.2915,3.2864,3.286,3.2838,3.2841,3.2914,3.289,3.2846,3.2839,3.2845,3.288,3.2899,3.2905,3.302,3.2905,3.2911,3.2915,3.2917,3.3245,3.3249,0,0,0,0,0,0,3.28,3.2807,3.2914,3.2916,3.2818,3.2845,3.2848,3.2877,3.2889,3.2886,3.2849,3.284,3.2891,3.2898,3.2907,3.306,3.2912,3.2918,3.2921,3.324,3.3246,3.3251,0,0,0,0,0,0,3.2797,3.2811,3.2912,3.286,3.2871,3.2852,3.2886,3.288,3.2899,3.2891,3.2887,3.2872,3.2888,3.2898,3.2989,3.306,3.292,3.2926,3.3234,3.3241,3.3248,3.3367,0,0,0,0,0,0,3.2794,3.281,3.2857,3.2861,3.2874,3.2992,3.289,3.2884,3.2909,3.2899,3.2912,3.291,3.2885,3.2981,3.2996,3.3066,3.2931,3.3227,3.3237,3.3246,3.3356,3.3377,3.3395,0,0,0,0,0,3.2789,3.2889,3.286,3.2873,3.2932,3.2996,3.3004,3.2971,3.2915,3.2964,3.2959,3.2909,3.305,3.2991,3.3007,3.308,3.3223,3.3234,3.3245,3.3348,3.3373,3.3395,0,0,0,0,0,0,3.2895,3.2889,3.2856,3.2961,3.298,3.298,3.3039,3.2999,3.3036,3.3024,3.2985,3.2989,3.3089,3.3094,3.3028,3.3207,3.3127,3.3142,3.32,3.3224,3.3243,3.324,3.2936,0,0,0,0,0,3.2931,3.2981,3.2974,3.3068,3.3079,3.3058,3.3085,3.3059,3.3077,3.3085,3.3087,3.3109,3.3158,3.3192,3.3236,3.3357,3.336,3.3416,3.3435,3.3451,3.3465,3.3531,3.3557,3.3289,3.3288,3.3288,0,0,3.3005,3.3008,3.3042,3.3089,3.3101,3.3157,3.3065,3.3128,3.317,3.3095,3.3181,3.3184,3.3207,3.3314,3.3361,3.3321,3.354,3.3466,3.3479,3.3483,3.3546,3.3571,3.3594,3.3296,3.3295,3.3294,0,0,3.3168,3.3175,3.3254,3.3268,3.3286,3.3272,3.3292,3.3298,3.3297,3.3382,3.3328,3.338,3.3465,3.3483,3.3504,3.3679,3.3636,3.3695,3.3797,3.3862,3.3883,3.3902,3.3965,3.3988,3.3709,3.3709,3.3709,0,3.3258,3.3338,3.33,3.3367,3.3391,3.3325,3.3407,3.3423,3.3456,3.3475,3.3429,3.3536,3.3547,3.3659,3.3701,3.372,3.3743,3.3693,3.3883,3.3901,3.3918,3.3978,3.4002,3.3716,3.3715,3.3715,3.3714,0,3.3449,3.3506,3.3568,3.36,3.3631,3.3705,3.3681,3.3718,3.369,3.3682,3.3772,3.3783,3.3829,3.3854,3.3828,3.3964,3.3938,3.3889,3.3807,3.3951,3.4007,3.403,3.3726,3.3724,3.3722,3.372,0,0,3.3677,3.369,3.3713,3.3728,3.3745,3.379,3.3863,3.3907,3.394,3.3966,3.4028,3.4103,3.4058,3.4082,3.4058,3.4115,3.4255,3.4059,3.4059,3.4095,3.4407,3.4444,3.4471,3.4227,3.4231,3.4235,3.4406,0,3.3839,3.3961,3.3931,3.4054,3.4107,3.4048,3.4112,3.4131,3.4127,3.4174,3.417,3.4224,3.4159,3.4174,3.4228,3.4226,3.4317,3.4214,3.4286,3.4289,3.4281,3.45,3.4539,3.4699,3.4427,3.4431,3.4434,0,3.4043,3.4076,3.4203,3.4214,3.4235,3.4293,3.4332,3.4377,3.44,3.4393,3.4421,3.4387,3.4462,3.4381,3.4486,3.4417,3.4445,3.445,3.4455,3.446,3.4369,3.4512,3.4749,3.4774,3.4468,3.4465,3.4462,0,3.4198,3.4275,3.4361,3.4376,3.439,3.4432,3.4441,3.4458,3.4488,3.4524,3.4543,3.4588,3.4613,3.4651,3.4631,3.4574,3.4741,3.4657,3.4739,3.474,3.4775,3.4773,3.5021,3.4795,3.4795,3.4794,3.4794,0,3.4381,3.4461,3.4431,3.4484,3.4574,3.4541,3.4631,3.4633,3.465,3.4705,3.4658,3.4711,3.4681,3.4734,3.4719,3.481,3.4821,3.482,3.4815,3.4823,3.4824,3.4841,3.4829,3.48,3.4799,3.4798,3.4797,0,3.4568,3.455,3.4641,3.4648,3.4652,3.4718,3.4725,3.4776,3.4769,3.4839,3.4854,3.4844,3.4903,3.4887,3.4952,3.4943,3.5057,3.5038,3.5049,3.5044,3.5126,3.5119,3.5393,3.5428,3.518,3.5182,3.5184,0,3.4685,3.4745,3.4759,3.4792,3.4803,3.4856,3.4886,3.4858,3.4892,3.4923,3.4972,3.5026,3.5068,3.5166,3.5166,3.5216,3.5198,3.5291,3.5205,3.5213,3.52,3.5196,3.5203,3.5308,3.5311,3.5313,3.5315,0,3.4896,3.4885,3.4928,3.4971,3.5007,3.5039,3.5067,3.5098,3.5072,3.5113,3.5171,3.5204,3.527,3.5326,3.5372,3.5384,3.5347,3.5342,3.5364,3.5373,3.5377,3.5376,3.5095,3.5336,3.5334,3.5332,3.5331,3.533,3.5051,3.5103,3.5121,3.5172,3.5191,3.5219,3.5268,3.5267,3.5315,3.5365,3.5347,3.5415,3.5439,3.5498,3.5516,3.5571,3.5536,3.5567,3.5575,3.5583,3.5593,3.5369,3.5579,3.5579,3.5578,3.5578,3.5577,0,3.5259,3.5269,3.5316,3.5357,3.5399,3.5358,3.5388,3.5426,3.5486,3.5511,3.5554,3.5623,3.5678,3.5683,3.5736,3.5779,3.5763,3.5794,3.579,3.5794,3.5621,3.5597,3.5806,3.5806,3.5806,3.5806,3.5805,3.5805,3.5372,3.5458,3.5451,3.5546,3.5556,3.5621,3.5642,3.5669,3.5688,3.5767,3.5812,3.5815,3.5833,3.5887,3.5937,3.5937,3.5959,3.5996,3.599,3.5828,3.5806,3.5784,3.5761,3.6001,3.6001,3.6158,3.616,3.6161]},{"header":{"parameterUnit":"m.s-1","parameterCategory":1,"la1":30.2991,"la2":30.254,"lo1":-89.0895,"lo2":-89.0444,"dy":0.0017,"dx":0.0017,"nx":28,"ny":28,"refTime":"2025-07-10T09:00:00:Z","depth":0,"parameterNumber":3,"parameterNumberName":"V-component_of_WINDS"},"data":[0,0,0,0,0,0,0,0,0,0,0,0,0,0,0,0,0,0,0,0,0,0,0,0,0,0,0,0,0,0,0,0,0,0,0,0,0,0,0,0,0,0,0,0,0,0,0,0,0,0,0,0,0,0,0,0,0,0,1.2424,1.2425,0,1.2493,1.2494,1.2494,1.2477,1.2476,1.2474,1.2473,1.254,1.2543,1.2546,0,0,0,0,0,0,0,0,0,0,0,0,0,1.2274,1.2277,1.2424,1.2425,1.2426,1.2493,1.2494,1.2494,1.2477,1.2476,1.2474,1.2472,1.2539,1.2543,1.2546,0,0,0,0,0,0,0,0,0,0,0,0,0,1.2341,1.2278,1.2424,1.2425,1.2426,1.2492,1.2494,1.2495,1.2478,1.2476,1.2474,1.2472,1.2538,1.2542,1.2547,1.2615,0,0,1.2561,1.2563,0,0,0,0,0,0,0,0,1.2337,1.2346,1.2424,1.2425,1.2426,1.2474,1.2465,1.2535,1.2478,1.2458,1.2473,1.2471,1.252,1.2526,1.2543,1.2618,1.2621,1.2561,1.2564,1.2566,1.2567,0,0,0,0,0,0,0,1.2333,1.2343,1.2451,1.2425,1.2427,1.2421,1.2429,1.2479,1.2499,1.246,1.2458,1.2467,1.252,1.2538,1.2544,1.2622,1.2561,1.2565,1.2568,1.257,1.2756,1.2758,0,0,0,0,0,0,1.2328,1.234,1.2449,1.2453,1.2376,1.2426,1.2434,1.2461,1.2499,1.2502,1.2469,1.2466,1.2532,1.2539,1.2547,1.2628,1.2566,1.257,1.2573,1.2754,1.2756,1.2759,0,0,0,0,0,0,1.2324,1.2338,1.2446,1.2396,1.241,1.243,1.2461,1.2463,1.2482,1.2505,1.2509,1.2484,1.253,1.254,1.2598,1.263,1.2572,1.2576,1.2751,1.2754,1.2758,1.2793,0,0,0,0,0,0,1.232,1.2336,1.2364,1.2397,1.2412,1.2498,1.2463,1.2466,1.249,1.2487,1.2521,1.2524,1.253,1.2591,1.2603,1.2636,1.258,1.2748,1.2753,1.2756,1.2789,1.2797,1.2804,0,0,0,0,0,1.2315,1.237,1.2365,1.2378,1.2447,1.25,1.2509,1.2514,1.2493,1.252,1.2535,1.2523,1.2625,1.2598,1.261,1.2645,1.2746,1.2751,1.2756,1.2785,1.2795,1.2804,0,0,0,0,0,0,1.2339,1.2375,1.2369,1.2437,1.2466,1.2497,1.2531,1.2525,1.2559,1.2555,1.2559,1.2567,1.2626,1.2641,1.261,1.2712,1.2682,1.269,1.27,1.271,1.2717,1.2712,1.2584,0,0,0,0,0,1.2352,1.2394,1.2422,1.2479,1.2494,1.251,1.2533,1.2535,1.2565,1.2576,1.2595,1.2623,1.2661,1.2686,1.2723,1.2791,1.2797,1.2821,1.2828,1.2834,1.2841,1.2877,1.2888,1.2775,1.2775,1.2775,0,0,1.238,1.2405,1.243,1.2485,1.2507,1.2549,1.252,1.2565,1.2596,1.2583,1.2639,1.2654,1.2685,1.2748,1.2777,1.2763,1.2873,1.2841,1.2845,1.2849,1.2883,1.2894,1.2903,1.2778,1.2778,1.2777,0,0,1.2452,1.2475,1.2525,1.2548,1.2583,1.2593,1.2605,1.2637,1.2647,1.2703,1.2694,1.273,1.2796,1.2818,1.2838,1.2918,1.2909,1.293,1.2969,1.3004,1.3013,1.3021,1.3049,1.3059,1.2936,1.2936,1.2936,0,1.2482,1.2545,1.2551,1.2598,1.2621,1.2612,1.2662,1.2684,1.2728,1.2744,1.2727,1.2809,1.283,1.2898,1.2917,1.2934,1.2947,1.2926,1.3011,1.3019,1.3027,1.3053,1.3064,1.2939,1.2938,1.2938,1.2938,0,1.258,1.2624,1.266,1.2704,1.2731,1.2779,1.2791,1.2818,1.2818,1.2829,1.2886,1.2911,1.2951,1.2968,1.2967,1.3035,1.3025,1.301,1.298,1.304,1.3065,1.3075,1.2942,1.2941,1.294,1.294,0,0,1.2669,1.2716,1.2729,1.2748,1.2785,1.2819,1.2866,1.2907,1.2929,1.296,1.2998,1.3054,1.304,1.3063,1.3065,1.3096,1.3157,1.3077,1.3077,1.309,1.3232,1.3244,1.3255,1.3151,1.3153,1.3154,1.323,0,1.2744,1.2828,1.2834,1.2909,1.2949,1.2941,1.2981,1.3008,1.3019,1.3054,1.3066,1.3106,1.3085,1.3098,1.3129,1.3143,1.3185,1.3138,1.3186,1.3187,1.3178,1.3269,1.3281,1.3351,1.324,1.3241,1.3242,0,1.2842,1.2877,1.2956,1.2987,1.3004,1.3041,1.3078,1.3112,1.3141,1.3148,1.3173,1.3171,1.3217,1.3186,1.3249,1.3217,1.3237,1.3247,1.3249,1.3254,1.3218,1.3275,1.3373,1.3384,1.3258,1.3257,1.3256,0,1.2899,1.2965,1.3021,1.3038,1.3076,1.3101,1.3118,1.3146,1.317,1.3202,1.3217,1.3255,1.3275,1.3303,1.331,1.3287,1.3374,1.3343,1.3379,1.3379,1.3398,1.3397,1.35,1.3411,1.3411,1.3411,1.3411,0,1.2981,1.303,1.3047,1.3081,1.3135,1.3141,1.3194,1.3209,1.3233,1.3269,1.3264,1.3298,1.3305,1.334,1.3345,1.3397,1.3406,1.3412,1.3413,1.3412,1.3412,1.3425,1.3421,1.3414,1.3413,1.3412,1.3412,0,1.3054,1.3067,1.3127,1.3158,1.3167,1.3205,1.3231,1.3263,1.3274,1.332,1.3331,1.3348,1.3389,1.3399,1.3447,1.3451,1.3512,1.3508,1.3502,1.3502,1.3538,1.3534,1.3654,1.367,1.357,1.3571,1.3572,0,1.3105,1.3143,1.3178,1.3202,1.3221,1.326,1.3285,1.3292,1.3317,1.3353,1.3381,1.3421,1.3454,1.3519,1.3535,1.3572,1.3569,1.3608,1.3574,1.3572,1.3569,1.3566,1.357,1.3614,1.3615,1.3616,1.3617,0,1.3196,1.32,1.3237,1.3276,1.3306,1.3336,1.3365,1.3385,1.3396,1.3425,1.3467,1.3493,1.3542,1.3582,1.3619,1.3634,1.3627,1.3628,1.3638,1.3638,1.3633,1.3636,1.3519,1.3625,1.3624,1.3623,1.3623,1.3623,1.3259,1.3292,1.3322,1.3362,1.3385,1.3413,1.3445,1.346,1.3495,1.3537,1.3539,1.3584,1.3612,1.3661,1.3679,1.3713,1.3701,1.3716,1.372,1.3724,1.3727,1.3628,1.372,1.372,1.372,1.372,1.3719,0,1.3349,1.3368,1.3405,1.3447,1.3478,1.347,1.3502,1.3528,1.3569,1.3596,1.3628,1.3676,1.3714,1.3733,1.3771,1.3795,1.3793,1.3805,1.3803,1.3807,1.3736,1.3723,1.3806,1.3806,1.3806,1.3806,1.3806,1.3806,1.3399,1.3454,1.3462,1.3528,1.3546,1.3592,1.361,1.3635,1.3656,1.3711,1.3743,1.3755,1.3779,1.3818,1.3852,1.3857,1.3871,1.3884,1.3887,1.3821,1.3812,1.3803,1.3791,1.3887,1.3888,1.3955,1.3956,1.3956]}]]